[[{"header":{"parameterUnit":"m.s-1","parameterCategory":1,"la1":30.2991,"la2":30.254,"lo1":-89.0895,"lo2":-89.0444,"dy":0.0017,"dx":0.0017,"nx":28,"ny":28,"refTime":"2025-05-18T21:00:00:Z","depth":0,"parameterNumber":2,"parameterNumberName":"U-component_of_WINDS"},"data":[0,0,0,0,0,0,0,0,0,0,0,0,0,0,0,0,0,0,0,0,0,0,0,0,0,0,0,0,0,0,0,0,0,0,0,0,0,0,0,0,0,0,0,0,0,0,0,0,0,0,0,0,0,0,0,0,0,0,0.3799,0.3799,0,0.3813,0.3813,0.3813,0.3807,0.3807,0.3806,0.3806,0.382,0.3821,0.3821,0,0,0,0,0,0,0,0,0,0,0,0,0,0.3766,0.3766,0.3799,0.3799,0.3799,0.3813,0.3813,0.3813,0.3807,0.3807,0.3806,0.3806,0.382,0.3821,0.3822,0,0,0,0,0,0,0,0,0,0,0,0,0,0.378,0.3766,0.3799,0.3798,0.3798,0.3813,0.3813,0.3813,0.3807,0.3806,0.3806,0.3805,0.382,0.3821,0.3822,0.3839,0,0,0.3825,0.3825,0,0,0,0,0,0,0,0,0.3779,0.3781,0.3798,0.3798,0.3798,0.3808,0.3807,0.3822,0.3807,0.3804,0.3806,0.3805,0.3816,0.3818,0.3821,0.3839,0.384,0.3825,0.3826,0.3826,0.3826,0,0,0,0,0,0,0,0.3778,0.3781,0.3805,0.3798,0.3798,0.3796,0.3798,0.3809,0.3813,0.3804,0.3803,0.3805,0.3816,0.382,0.3822,0.384,0.3825,0.3826,0.3827,0.3827,0.3871,0.3871,0,0,0,0,0,0,0.3777,0.378,0.3804,0.3805,0.3787,0.3797,0.3799,0.3805,0.3813,0.3813,0.3806,0.3805,0.3819,0.3821,0.3822,0.3841,0.3826,0.3827,0.3828,0.387,0.3871,0.3872,0,0,0,0,0,0,0.3777,0.378,0.3804,0.3792,0.3795,0.3798,0.3805,0.3806,0.381,0.3814,0.3814,0.3809,0.3819,0.3821,0.3834,0.3842,0.3828,0.3829,0.387,0.3871,0.3871,0.3881,0,0,0,0,0,0,0.3776,0.3779,0.3786,0.3792,0.3796,0.3816,0.3806,0.3806,0.3812,0.3811,0.3818,0.3818,0.3818,0.3833,0.3835,0.3843,0.3829,0.3869,0.387,0.3871,0.388,0.3882,0.3884,0,0,0,0,0,0.3775,0.3789,0.3787,0.379,0.3805,0.3816,0.3818,0.3818,0.3812,0.3819,0.3821,0.3818,0.3841,0.3834,0.3837,0.3845,0.3869,0.387,0.3871,0.3879,0.3882,0.3884,0,0,0,0,0,0,0.3784,0.379,0.3787,0.3804,0.381,0.3815,0.3824,0.3821,0.3829,0.3827,0.3827,0.3828,0.3842,0.3845,0.3838,0.3861,0.3854,0.3855,0.3859,0.3861,0.3863,0.3862,0.383,0,0,0,0,0,0.3788,0.3798,0.3802,0.3816,0.3819,0.3821,0.3826,0.3825,0.3831,0.3833,0.3837,0.3842,0.385,0.3856,0.3864,0.388,0.3881,0.3887,0.3889,0.3891,0.3892,0.3899,0.3902,0.3875,0.3875,0.3875,0,0,0.3797,0.3801,0.3807,0.3818,0.3823,0.3831,0.3823,0.3833,0.384,0.3835,0.3848,0.385,0.3856,0.3871,0.3877,0.3874,0.3899,0.3892,0.3893,0.3894,0.3901,0.3903,0.3905,0.3876,0.3876,0.3876,0,0,0.3817,0.3822,0.3833,0.3837,0.3843,0.3844,0.3847,0.3852,0.3854,0.3866,0.3862,0.387,0.3884,0.3888,0.3892,0.3912,0.3908,0.3914,0.3924,0.3931,0.3933,0.3935,0.3941,0.3943,0.3916,0.3916,0.3916,0,0.3827,0.3841,0.384,0.385,0.3854,0.385,0.3861,0.3865,0.3873,0.3876,0.3872,0.3889,0.3893,0.3907,0.3912,0.3916,0.3918,0.3914,0.3933,0.3935,0.3936,0.3942,0.3944,0.3916,0.3916,0.3916,0.3916,0,0.3852,0.3861,0.387,0.3877,0.3883,0.3894,0.3894,0.3899,0.3897,0.3898,0.391,0.3915,0.3922,0.3926,0.3925,0.394,0.3937,0.3933,0.3925,0.3939,0.3945,0.3947,0.3917,0.3917,0.3917,0.3917,0,0,0.388,0.3885,0.3888,0.3891,0.3896,0.3903,0.3913,0.3921,0.3925,0.393,0.3938,0.3949,0.3945,0.3949,0.3948,0.3955,0.3968,0.3949,0.3949,0.3952,0.3983,0.3986,0.3989,0.3966,0.3966,0.3966,0.3983,0,0.39,0.3917,0.3915,0.3931,0.3939,0.3934,0.3942,0.3946,0.3947,0.3953,0.3954,0.3962,0.3956,0.3958,0.3964,0.3965,0.3974,0.3964,0.3972,0.3972,0.397,0.3992,0.3995,0.401,0.3985,0.3985,0.3985,0,0.3925,0.3931,0.3947,0.395,0.3953,0.3961,0.3966,0.3973,0.3976,0.3976,0.398,0.3978,0.3987,0.3979,0.399,0.3983,0.3987,0.3987,0.3988,0.3989,0.398,0.3992,0.4015,0.4017,0.3989,0.3988,0.3988,0,0.3943,0.3954,0.3965,0.3968,0.3971,0.3976,0.3978,0.3981,0.3985,0.399,0.3992,0.3998,0.4001,0.4006,0.4004,0.3999,0.4016,0.4008,0.4016,0.4016,0.4019,0.4019,0.4043,0.4022,0.4022,0.4022,0.4022,0,0.3965,0.3975,0.3973,0.3979,0.399,0.3988,0.3998,0.3999,0.4002,0.4008,0.4004,0.401,0.4008,0.4014,0.4013,0.4022,0.4024,0.4023,0.4023,0.4023,0.4023,0.4025,0.4024,0.4023,0.4023,0.4023,0.4022,0,0.3986,0.3985,0.3996,0.3998,0.3999,0.4007,0.4008,0.4014,0.4014,0.4022,0.4023,0.4023,0.4029,0.4028,0.4035,0.4035,0.4046,0.4044,0.4044,0.4044,0.4051,0.405,0.4076,0.4079,0.4057,0.4058,0.4058,0,0.4,0.4007,0.401,0.4013,0.4015,0.4021,0.4025,0.4022,0.4026,0.403,0.4035,0.4041,0.4045,0.4055,0.4055,0.406,0.4059,0.4067,0.4059,0.4059,0.4058,0.4057,0.4057,0.4069,0.4069,0.4069,0.4069,0,0.4024,0.4023,0.4028,0.4033,0.4037,0.4041,0.4044,0.4047,0.4045,0.4049,0.4055,0.4058,0.4065,0.407,0.4074,0.4076,0.4072,0.4072,0.4074,0.4074,0.4074,0.4073,0.4048,0.4071,0.4071,0.4071,0.4071,0.4071,0.4042,0.4047,0.4049,0.4055,0.4057,0.4059,0.4064,0.4064,0.4069,0.4074,0.4072,0.4079,0.4081,0.4086,0.4088,0.4092,0.4089,0.4092,0.4092,0.4093,0.4093,0.4073,0.4093,0.4093,0.4093,0.4093,0.4093,0,0.4065,0.4066,0.4071,0.4075,0.4079,0.4074,0.4077,0.4081,0.4086,0.4088,0.4092,0.4098,0.4103,0.4103,0.4107,0.4111,0.4109,0.4112,0.4111,0.4112,0.4097,0.4094,0.4113,0.4113,0.4113,0.4113,0.4113,0.4113,0.4078,0.4087,0.4085,0.4095,0.4095,0.4101,0.4103,0.4105,0.4106,0.4113,0.4117,0.4117,0.4117,0.4121,0.4125,0.4125,0.4126,0.413,0.4129,0.4115,0.4113,0.4111,0.4109,0.413,0.413,0.4143,0.4143,0.4143]},{"header":{"parameterUnit":"m.s-1","parameterCategory":1,"la1":30.2991,"la2":30.254,"lo1":-89.0895,"lo2":-89.0444,"dy":0.0017,"dx":0.0017,"nx":28,"ny":28,"refTime":"2025-05-18T21:00:00:Z","depth":0,"parameterNumber":3,"parameterNumberName":"V-component_of_WINDS"},"data":[0,0,0,0,0,0,0,0,0,0,0,0,0,0,0,0,0,0,0,0,0,0,0,0,0,0,0,0,0,0,0,0,0,0,0,0,0,0,0,0,0,0,0,0,0,0,0,0,0,0,0,0,0,0,0,0,0,0,3.4035,3.4035,0,3.4047,3.4047,3.4048,3.3997,3.3995,3.3994,3.3992,3.4003,3.4005,3.4006,0,0,0,0,0,0,0,0,0,0,0,0,0,3.3966,3.3968,3.4035,3.4035,3.4036,3.4047,3.4047,3.4048,3.3997,3.3995,3.3993,3.3992,3.4002,3.4004,3.4006,0,0,0,0,0,0,0,0,0,0,0,0,0,3.3989,3.3968,3.4035,3.4012,3.401,3.4047,3.4047,3.4048,3.3997,3.3995,3.3993,3.3991,3.4002,3.4004,3.4007,3.4067,0,0,3.4014,3.4015,0,0,0,0,0,0,0,0,3.3988,3.3991,3.4015,3.4013,3.4011,3.4018,3.4027,3.4054,3.3998,3.4002,3.3992,3.399,3.401,3.4011,3.4019,3.4067,3.4068,3.4014,3.4016,3.4017,3.4018,0,0,0,0,0,0,0,3.3986,3.3991,3.404,3.4015,3.4013,3.4,3.4001,3.4032,3.4018,3.4002,3.3998,3.4,3.4008,3.4016,3.4018,3.4068,3.4014,3.4017,3.4018,3.4019,3.4165,3.4168,0,0,0,0,0,0,3.3988,3.399,3.4039,3.404,3.3994,3.4003,3.4004,3.4018,3.4018,3.4016,3.4002,3.3998,3.4013,3.4016,3.4019,3.4088,3.4017,3.4019,3.4021,3.4163,3.4166,3.4168,0,0,0,0,0,0,3.3987,3.3993,3.4039,3.4014,3.4019,3.4007,3.4023,3.402,3.4028,3.4018,3.4015,3.4013,3.4011,3.4015,3.4055,3.4088,3.4021,3.4023,3.416,3.4164,3.4167,3.4229,0,0,0,0,0,0,3.3985,3.3993,3.4016,3.4015,3.402,3.4076,3.4025,3.4022,3.4032,3.4027,3.4027,3.4025,3.401,3.4052,3.4058,3.409,3.4025,3.4157,3.4162,3.4166,3.4224,3.4234,3.4243,0,0,0,0,0,3.3983,3.4033,3.4018,3.4024,3.4049,3.4078,3.4081,3.4063,3.4035,3.4058,3.4052,3.4025,3.4084,3.4056,3.4062,3.4096,3.4155,3.416,3.4166,3.422,3.4232,3.4243,0,0,0,0,0,0,3.4037,3.4032,3.4015,3.4067,3.4073,3.407,3.4098,3.4077,3.4091,3.4085,3.4061,3.4062,3.4106,3.4105,3.4075,3.4154,3.4114,3.4121,3.4153,3.4165,3.4174,3.4174,3.4027,0,0,0,0,0,3.4056,3.408,3.4074,3.412,3.4124,3.4111,3.4122,3.4108,3.4113,3.4116,3.4112,3.4119,3.4138,3.4151,3.4169,3.4223,3.4222,3.425,3.4259,3.4267,3.4273,3.4302,3.4314,3.4186,3.4186,3.4186,0,0,3.4093,3.4093,3.411,3.4131,3.4134,3.4159,3.4113,3.4142,3.416,3.412,3.4158,3.4155,3.416,3.4208,3.4229,3.4209,3.4308,3.4274,3.428,3.4282,3.4308,3.4321,3.4331,3.419,3.4189,3.4188,0,0,3.4174,3.4177,3.4216,3.422,3.4226,3.4217,3.4226,3.4226,3.4223,3.426,3.423,3.4251,3.4286,3.429,3.4297,3.438,3.4356,3.4386,3.4436,3.4464,3.4474,3.4483,3.4512,3.4523,3.4393,3.4393,3.4393,0,3.422,3.4258,3.4238,3.4269,3.4278,3.4243,3.4282,3.4287,3.4298,3.4305,3.4282,3.4324,3.4325,3.4373,3.4393,3.44,3.441,3.4386,3.4474,3.4483,3.4491,3.4518,3.453,3.4396,3.4396,3.4396,3.4395,0,3.4314,3.434,3.437,3.4382,3.4395,3.443,3.4414,3.4429,3.4413,3.4406,3.4445,3.4445,3.4461,3.4471,3.4456,3.4517,3.4504,3.4479,3.4438,3.4507,3.4533,3.4543,3.4401,3.44,3.4399,3.4398,0,0,3.443,3.4431,3.4442,3.4447,3.4451,3.4471,3.4503,3.452,3.4533,3.4542,3.4568,3.4598,3.4574,3.4582,3.4566,3.4591,3.4656,3.4562,3.4561,3.4579,3.4723,3.4742,3.4755,3.464,3.4642,3.4644,3.4722,0,3.451,3.4566,3.4548,3.4605,3.4628,3.4595,3.4623,3.4628,3.4623,3.4641,3.4634,3.4656,3.4622,3.4627,3.465,3.4643,3.4684,3.4637,3.4664,3.4665,3.4664,3.4768,3.4789,3.4863,3.4732,3.4734,3.4735,0,3.461,3.4623,3.4682,3.4682,3.4691,3.4717,3.473,3.4749,3.4754,3.4747,3.4756,3.4736,3.4767,3.4726,3.4768,3.4737,3.4746,3.4745,3.4747,3.4749,3.4704,3.4773,3.4886,3.4898,3.4751,3.4749,3.4748,0,3.4689,3.4721,3.4761,3.4766,3.4766,3.4785,3.4786,3.4788,3.48,3.4811,3.4818,3.4833,3.4841,3.4853,3.4837,3.4809,3.4881,3.484,3.4877,3.4877,3.4893,3.4893,3.501,3.49,3.49,3.49,3.4899,0,3.478,3.4817,3.4796,3.482,3.4861,3.484,3.488,3.4877,3.488,3.4902,3.4874,3.4896,3.4873,3.4893,3.488,3.4916,3.492,3.4916,3.4912,3.4918,3.4919,3.4924,3.4919,3.4903,3.4902,3.4901,3.4901,0,3.4875,3.4862,3.4903,3.49,3.49,3.493,3.4927,3.4949,3.4941,3.4969,3.4975,3.4962,3.4983,3.4968,3.4989,3.4981,3.5029,3.5018,3.5028,3.5025,3.5062,3.5059,3.5188,3.5203,3.5083,3.5084,3.5085,0,3.4934,3.4961,3.4962,3.4975,3.4978,3.4999,3.5011,3.4991,3.5004,3.5011,3.5032,3.5051,3.5065,3.51,3.5092,3.5108,3.5097,3.5141,3.5099,3.5105,3.5097,3.5096,3.5099,3.515,3.5151,3.5152,3.5153,0,3.5039,3.5031,3.5049,3.5064,3.5079,3.509,3.5098,3.5111,3.5091,3.5106,3.5128,3.5139,3.516,3.5179,3.5192,3.5192,3.5169,3.5166,3.5176,3.5182,3.5187,3.5185,3.5051,3.5163,3.5162,3.5162,3.5161,3.5161,3.5118,3.5141,3.5144,3.5165,3.5169,3.5178,3.5198,3.5192,3.521,3.5227,3.5214,3.5239,3.5242,3.5258,3.5261,3.528,3.5262,3.5275,3.5279,3.5283,3.5288,3.5184,3.5282,3.5282,3.5282,3.5281,3.5281,0,3.5221,3.5222,3.5241,3.5254,3.527,3.5247,3.5256,3.527,3.5293,3.5298,3.5313,3.5337,3.5356,3.5349,3.5365,3.5382,3.5372,3.5387,3.5385,3.5386,3.5303,3.5293,3.5395,3.5395,3.5395,3.5395,3.5395,3.5395,3.5277,3.5315,3.5308,3.5347,3.5347,3.5373,3.5379,3.5387,3.5391,3.542,3.5435,3.5431,3.5431,3.5447,3.5462,3.546,3.5467,3.5486,3.548,3.5403,3.5391,3.5381,3.5371,3.5487,3.5487,3.556,3.5561,3.5561]}]]